This is the latest recevied weather packets stored in our database for station/object EA3IK-1. If no packets are shown the sender has not sent any weather packets the latest 10 day(s).
| Time | Temp. | Humidity | Pressure | Rain* | Wind** | Luminosity | Snow |
|---|---|---|---|---|---|---|---|
| 1777305943 | 22.22° C | 58% | 1015.8 hPa | 0 mm | - | - | - |
| 1777305042 | 22.78° C | 60% | 1015.8 hPa | 0 mm | - | - | - |
| 1777304141 | 22.78° C | 60% | 1015.8 hPa | 0 mm | - | - | - |
| 1777303240 | 22.78° C | 61% | 1015.8 hPa | 0 mm | - | - | - |
| 1777302339 | 22.78° C | 62% | 1015.7 hPa | 0 mm | - | - | - |
| 1777301438 | 22.78° C | 64% | 1015.7 hPa | 0 mm | - | - | - |
| 1777300537 | 22.78° C | 63% | 1015.7 hPa | 0 mm | - | - | - |
| 1777299637 | 23.33° C | 63% | 1015.8 hPa | 0 mm | - | - | - |
| 1777298736 | 23.89° C | 62% | 1015.9 hPa | 0 mm | - | - | - |
| 1777297835 | 23.33° C | 62% | 1016.2 hPa | 0 mm | - | - | - |
| 1777296934 | 23.33° C | 62% | 1016.3 hPa | 0 mm | - | - | - |
| 1777296033 | 23.89° C | 61% | 1016.5 hPa | 0 mm | - | - | - |
| 1777295132 | 23.33° C | 62% | 1016.7 hPa | 0 mm | - | - | - |
| 1777294231 | 23.89° C | 62% | 1016.6 hPa | 0 mm | - | - | - |
| 1777293331 | 23.89° C | 61% | 1016.8 hPa | 0 mm | - | - | - |
| 1777292430 | 23.89° C | 63% | 1016.9 hPa | 0 mm | - | - | - |
| 1777291529 | 23.33° C | 64% | 1017 hPa | 0 mm | - | - | - |
| 1777290628 | 23.89° C | 63% | 1017.2 hPa | 0 mm | - | - | - |
| 1777289727 | 23.89° C | 63% | 1017.4 hPa | 0 mm | - | - | - |
| 1777288826 | 23.33° C | 65% | 1017.5 hPa | 0 mm | - | - | - |
| 1777287925 | 22.78° C | 65% | 1017.6 hPa | 0 mm | - | - | - |
| 1777287025 | 22.78° C | 65% | 1017.7 hPa | 0 mm | - | - | - |
| 1777286124 | 23.33° C | 65% | 1017.8 hPa | 0 mm | - | - | - |
| 1777285223 | 22.78° C | 66% | 1017.9 hPa | 0 mm | - | - | - |
| 1777284322 | 21.67° C | 67% | 1018 hPa | 0 mm | - | - | - |
* Rain latest hour (hover to see other rain measurements)
** Current wind speed in m/s (hover to see current wind gust speed)